Location: Barcelona
(41.3830°N, 2.1830°E)
Time: 00:17:44
(UTC+02:00)

ISS - Pass Details

Date: 02 August 2020
Orbit: 418 x 420 km, 51.6° (Epoch: 08 August)

Event Time Altitude Azimuth Distance (km) Brightness Sun altitude
Rises 22:46:35 0° 297° (WNW) 2,368 1.6 -16.4°
Reaches altitude 10° 22:48:52 10° 284° (WNW) 1,501 0.0 -16.8°
Maximum altitude 22:51:46 27° 225° (SW) 843 -2.2 -17.1°
Enters shadow 22:52:35 24° 200° (SSW) 910 -2.3 -17.3°
